,,Stat6,,Stat2,,Stat8,,Stat9,,Stat10,,Wind1,,Wind1,
time,status,PA1M_AVG,status,PR1M_SUM,status,RH1M_AVG,status,SR1M_AVG,status,TA1M_AVG,status,W1dAve1m,status,W1sAve1m,
2006-02-13, 00:00:01,VALID,918.573,VALID,0,VALID,99.6226,VALID,0,VALID,20.3985,VALID,136,VALID,0,
2006-02-13, 00:01:00,VALID,918.547,VALID,0,VALID,99.2945,VALID,-0.0169808,VALID,20.3401,VALID,128,VALID,0.197731,
2006-02-13, 00:02:00,VALID,918.533,VALID,0,VALID,98.8812,VALID,0,VALID,20.2496,VALID,67,VALID,0.726181,
2006-02-13, 00:03:00,VALID,918.518,VALID,0,VALID,98.9041,VALID,0,VALID,20.1755,VALID,43,VALID,1.10232,
2006-02-13, 00:04:00,VALID,918.505,VALID,0,VALID,99.3543,VALID,0,VALID,20.1696,VALID,49,VALID,1.1021,
2006-02-13, 00:05:00,VALID,918.496,VALID,0,VALID,99.704,VALID,0.0169808,VALID,20.179,VALID,50,VALID,1.10683,
2006-02-13, 00:06:01,VALID,918.476,VALID,0,VALID,99.8019,VALID,0.0169808,VALID,20.1656,VALID,54,VALID,0.930233,
2006-02-13, 00:07:00,VALID,918.476,VALID,0,VALID,99.6111,VALID,0,VALID,20.1412,VALID,53,VALID,0.69494,
2006-02-13, 00:08:00,VALID,918.489,VALID,0,VALID,99.5946,VALID,0,VALID,20.0828,VALID,53,VALID,0.733422,
2006-02-13, 00:09:01,VALID,918.487,VALID,0,VALID,99.6913,VALID,0,VALID,20.0535,VALID,51,VALID,0.580611,
2006-02-13, 00:10:00,VALID,918.481,VALID,0,VALID,99.9664,VALID,-0.0169808,VALID,20.0567,VALID,52,VALID,0.62827,
2006-02-13, 00:11:00,VALID,918.451,VALID,0,VALID,100,VALID,-0.0679233,VALID,20.0559,VALID,54,VALID,0.56157,
2006-02-13, 00:12:00,VALID,918.427,VALID,0,VALID,100,VALID,-0.0169808,VALID,20.0664,VALID,56,VALID,0.355299,
2006-02-13, 00:13:00,VALID,918.394,VALID,0,VALID,100,VALID,-0.0509425,VALID,20.0532,VALID,56,VALID,0.0167683,
2006-02-13, 00:14:01,VALID,918.354,VALID,0,VALID,100,VALID,0,VALID,20.0666,VALID,56,VALID,0,
2006-02-13, 00:15:00,VALID,918.323,VALID,0,VALID,100,VALID,-0.0169808,VALID,20.0597,VALID,56,VALID,0,
2006-02-13, 00:16:00,VALID,918.305,VALID,0,VALID,100,VALID,0.0169808,VALID,20.0664,VALID,56,VALID,0,
2006-02-13, 00:17:00,VALID,918.28,VALID,0,VALID,100,VALID,0,VALID,20.0373,VALID,56,VALID,0,
2006-02-13, 00:18:00,VALID,918.268,VALID,0,VALID,99.9794,VALID,-0.0169808,VALID,19.9926,VALID,56,VALID,0.113863,
2006-02-13, 00:19:00,VALID,918.253,VALID,0,VALID,99.9929,VALID,0,VALID,19.963,VALID,56,VALID,0.528906,
2006-02-13, 00:20:01,VALID,918.249,VALID,0,VALID,100,VALID,-0.0169808,VALID,19.9403,VALID,56,VALID,0.408398,
2006-02-13, 00:21:00,VALID,918.251,VALID,0,VALID,100,VALID,-0.0169808,VALID,19.921,VALID,31,VALID,0.404948,
2006-02-13, 00:22:01,VALID,918.249,VALID,0,VALID,100,VALID,0.0679233,VALID,19.9456,VALID,359,VALID,0.530134,
2006-02-13, 00:23:01,VALID,918.237,VALID,0,VALID,100,VALID,0.0849042,VALID,19.9774,VALID,354,VALID,0.621466,
2006-02-13, 00:24:00,VALID,918.24,VALID,0,VALID,100,VALID,0.0849042,VALID,20.003,VALID,344,VALID,0.815168,
2006-02-13, 00:25:00,VALID,918.259,VALID,0,VALID,100,VALID,0.101885,VALID,20.0492,VALID,336,VALID,0.61795,
2006-02-13, 00:26:01,VALID,918.258,VALID,0,VALID,100,VALID,0.101885,VALID,20.0942,VALID,316,VALID,0.396662,
2006-02-13, 00:27:00,VALID,918.281,VALID,0,VALID,100,VALID,0.101885,VALID,20.1166,VALID,316,VALID,0.29184,
2006-02-13, 00:28:00,VALID,918.297,VALID,0,VALID,100,VALID,0.101885,VALID,20.1293,VALID,331,VALID,0.27168,
2006-02-13, 00:29:00,VALID,918.31,VALID,0,VALID,100,VALID,0.0849042,VALID,20.1201,VALID,335,VALID,0.403201,
2006-02-13, 00:30:01,VALID,918.331,VALID,0,VALID,100,VALID,0.101885,VALID,20.1101,VALID,335,VALID,0.165923,
2006-02-13, 00:31:00,VALID,918.333,VALID,0,VALID,100,VALID,0.101885,VALID,20.1233,VALID,335,VALID,0.182546,
2006-02-13, 00:32:00,VALID,918.325,VALID,0,VALID,100,VALID,0.101885,VALID,20.126,VALID,335,VALID,0.122275,
2006-02-13, 00:33:01,VALID,918.346,VALID,0,VALID,100,VALID,0.101885,VALID,20.1621,VALID,335,VALID,0.0176711,
2006-02-13, 00:34:01,VALID,918.337,VALID,0,VALID,100,VALID,0.101885,VALID,20.1842,VALID,335,VALID,0.000363372,
2006-02-13, 00:35:00,VALID,918.349,VALID,0,VALID,100,VALID,0.118866,VALID,20.2098,VALID,335,VALID,0.000585938,
2006-02-13, 00:36:00,VALID,918.369,VALID,0,VALID,100,VALID,0.0679233,VALID,20.2424,VALID,335,VALID,0.000849185,
2006-02-13, 00:37:00,VALID,918.37,VALID,0,VALID,100,VALID,0.0169808,VALID,20.2641,VALID,335,VALID,0.0146484,
2006-02-13, 00:38:01,VALID,918.369,VALID,0,VALID,100,VALID,-0.0339617,VALID,20.2735,VALID,335,VALID,0,
2006-02-13, 00:39:00,VALID,918.374,VALID,0,VALID,100,VALID,-0.0509425,VALID,20.2807,VALID,335,VALID,0.108467,
2006-02-13, 00:40:00,VALID,918.377,VALID,0,VALID,100,VALID,-0.0169808,VALID,20.2571,VALID,334,VALID,0.245924,
2006-02-13, 00:41:01,VALID,918.395,VALID,0,VALID,100,VALID,-0.0339617,VALID,20.2797,VALID,334,VALID,0.109193,
2006-02-13, 00:42:00,VALID,918.416,VALID,0,VALID,100,VALID,-0.0169808,VALID,20.2859,VALID,334,VALID,0.251524,
2006-02-13, 00:43:00,VALID,918.44,VALID,0,VALID,100,VALID,-0.0169808,VALID,20.2929,VALID,334,VALID,0.275568,
2006-02-13, 00:44:01,VALID,918.469,VALID,0,VALID,100,VALID,0,VALID,20.2994,VALID,341,VALID,0.265625,
2006-02-13, 00:45:00,VALID,918.49,VALID,0,VALID,100,VALID,0,VALID,20.3088,VALID,341,VALID,0.0215774,
2006-02-13, 00:46:00,VALID,918.514,VALID,0,VALID,100,VALID,0,VALID,20.3123,VALID,341,VALID,0.115189,
2006-02-13, 00:47:01,VALID,918.547,VALID,0,VALID,100,VALID,-0.0339617,VALID,20.3148,VALID,341,VALID,0.211664,
2006-02-13, 00:48:00,VALID,918.553,VALID,0,VALID,100,VALID,0.0169808,VALID,20.3312,VALID,341,VALID,0.0201672,
2006-02-13, 00:49:01,VALID,918.562,VALID,0,VALID,100,VALID,0.0169808,VALID,20.3409,VALID,341,VALID,0.0152699,
2006-02-13, 00:50:00,VALID,918.566,VALID,0,VALID,100,VALID,-0.0169808,VALID,20.367,VALID,341,VALID,0.0014881,
2006-02-13, 00:51:00,VALID,918.548,VALID,0,VALID,100,VALID,0.0169808,VALID,20.3826,VALID,341,VALID,0,
2006-02-13, 00:52:01,VALID,918.539,VALID,0,VALID,100,VALID,-0.0169808,VALID,20.3729,VALID,341,VALID,0.118075,
2006-02-13, 00:53:01,VALID,918.526,VALID,0,VALID,100,VALID,-0.0169808,VALID,20.3893,VALID,341,VALID,0.12064,
2006-02-13, 00:54:00,VALID,918.508,VALID,0,VALID,100,VALID,-0.0679233,VALID,20.3963,VALID,350,VALID,0.367188,
2006-02-13, 00:55:00,VALID,918.495,VALID,0,VALID,100,VALID,-0.0339617,VALID,20.406,VALID,13,VALID,0.340511,
2006-02-13, 00:56:01,VALID,918.472,VALID,0,VALID,100,VALID,0,VALID,20.402,VALID,28,VALID,0.293899,
2006-02-13, 00:57:00,VALID,918.458,VALID,0,VALID,99.9941,VALID,0.0169808,VALID,20.3928,VALID,28,VALID,0.346112,
2006-02-13, 00:58:00,VALID,918.426,VALID,0,VALID,99.8337,VALID,-0.0339617,VALID,20.3734,VALID,34,VALID,0.496548,
2006-02-13, 00:59:00,VALID,918.414,VALID,0,VALID,99.5908,VALID,0,VALID,20.3543,VALID,55,VALID,0.693714,
2006-02-13, 01:00:00,VALID,918.38,VALID,0,VALID,99.5221,VALID,-0.0509425,VALID,20.3282,VALID,62,VALID,0.735328,
2006-02-13, 01:01:01,VALID,918.371,VALID,0,VALID,99.5539,VALID,-0.0169808,VALID,20.3021,VALID,62,VALID,0.692769,
2006-02-13, 01:02:01,VALID,918.356,VALID,0,VALID,99.5832,VALID,0,VALID,20.2859,VALID,52,VALID,0.886814,
2006-02-13, 01:03:01,VALID,918.348,VALID,0,VALID,99.573,VALID,0.0169808,VALID,20.2504,VALID,39,VALID,1.00148,
2006-02-13, 01:04:01,VALID,918.338,VALID,0,VALID,99.5069,VALID,0,VALID,20.2439,VALID,37,VALID,0.949963,
2006-02-13, 01:05:01,VALID,918.331,VALID,0,VALID,99.4954,VALID,-0.0169808,VALID,20.2374,VALID,37,VALID,0.884859,
2006-02-13, 01:06:00,VALID,918.313,VALID,0,VALID,99.4382,VALID,-0.0339617,VALID,20.2541,VALID,37,VALID,0.990916,
2006-02-13, 01:07:00,VALID,918.288,VALID,0,VALID,99.3492,VALID,-0.0169808,VALID,20.2277,VALID,37,VALID,0.758539,
2006-02-13, 01:08:00,VALID,918.289,VALID,0,VALID,99.3288,VALID,-0.0169808,VALID,20.2183,VALID,37,VALID,0.538517,
2006-02-13, 01:09:00,VALID,918.274,VALID,0,VALID,99.2958,VALID,-0.0339617,VALID,20.2081,VALID,37,VALID,0.328488,
2006-02-13, 01:10:00,VALID,918.257,VALID,0,VALID,99.2704,VALID,-0.0169808,VALID,20.1892,VALID,37,VALID,0.251563,
2006-02-13, 01:11:00,VALID,918.251,VALID,0,VALID,99.3072,VALID,-0.0509425,VALID,20.1827,VALID,37,VALID,0.175686,
2006-02-13, 01:12:00,VALID,918.233,VALID,0,VALID,99.311,VALID,-0.0339617,VALID,20.176,VALID,37,VALID,0.0555753,
2006-02-13, 01:13:00,VALID,918.221,VALID,0,VALID,99.3416,VALID,-0.0169808,VALID,20.173,VALID,26,VALID,0.131037,
2006-02-13, 01:14:00,VALID,918.185,VALID,0,VALID,99.3199,VALID,-0.0339617,VALID,20.1892,VALID,20,VALID,0.0163517,
2006-02-13, 01:15:01,VALID,918.167,VALID,0,VALID,99.208,VALID,0,VALID,20.1827,VALID,20,VALID,0,
2006-02-13, 01:16:00,VALID,918.145,VALID,0,VALID,99.175,VALID,0,VALID,20.1698,VALID,20,VALID,0,
2006-02-13, 01:17:01,VALID,918.122,VALID,0,VALID,99.1635,VALID,0.0169808,VALID,20.1532,VALID,20,VALID,0,
2006-02-13, 01:18:00,VALID,918.081,VALID,0,VALID,99.0389,VALID,-0.0339617,VALID,20.141,VALID,20,VALID,0,
2006-02-13, 01:19:01,VALID,918.06,VALID,0,VALID,98.9728,VALID,-0.0169808,VALID,20.1184,VALID,20,VALID,0,
2006-02-13, 01:20:01,VALID,918.016,VALID,0,VALID,99.0542,VALID,-0.0339617,VALID,20.092,VALID,20,VALID,0.052689,
2006-02-13, 01:21:00,VALID,917.968,VALID,0,VALID,99.1445,VALID,0,VALID,20.0858,VALID,20,VALID,0.205793,
2006-02-13, 01:22:00,VALID,917.927,VALID,0,VALID,99.1941,VALID,-0.0169808,VALID,20.0858,VALID,20,VALID,0.14008,
2006-02-13, 01:23:00,VALID,917.897,VALID,0,VALID,99.3288,VALID,-0.0509425,VALID,20.0888,VALID,356,VALID,0.281622,
2006-02-13, 01:24:01,VALID,917.889,VALID,0,VALID,99.4293,VALID,0,VALID,20.099,VALID,352,VALID,0.239099,
2006-02-13, 01:25:01,VALID,917.886,VALID,0,VALID,99.5336,VALID,-0.0509425,VALID,20.0985,VALID,352,VALID,0,
2006-02-13, 01:26:00,VALID,917.908,VALID,0,VALID,99.5056,VALID,-0.0339617,VALID,20.1022,VALID,352,VALID,0,
2006-02-13, 01:27:01,VALID,917.915,VALID,0,VALID,99.4992,VALID,0,VALID,20.0858,VALID,352,VALID,0,
2006-02-13, 01:28:01,VALID,917.929,VALID,0,VALID,99.5921,VALID,0,VALID,20.0793,VALID,352,VALID,0,
2006-02-13, 01:29:01,VALID,917.916,VALID,0,VALID,99.6417,VALID,-0.0169808,VALID,20.0828,VALID,352,VALID,0,
2006-02-13, 01:30:01,VALID,917.918,VALID,0,VALID,99.6544,VALID,-0.0169808,VALID,20.0758,VALID,352,VALID,0,
2006-02-13, 01:31:01,VALID,917.886,VALID,0,VALID,99.6289,VALID,0,VALID,20.0497,VALID,352,VALID,0,
2006-02-13, 01:32:01,VALID,917.87,VALID,0,VALID,99.4051,VALID,-0.0169808,VALID,20.0217,VALID,352,VALID,0,
2006-02-13, 01:33:01,VALID,917.84,VALID,0,VALID,98.824,VALID,-0.0169808,VALID,19.9078,VALID,352,VALID,0,
2006-02-13, 01:34:00,VALID,917.826,VALID,0,VALID,99.0071,VALID,-0.0169808,VALID,19.8593,VALID,352,VALID,0,
2006-02-13, 01:35:01,VALID,917.806,VALID,0,VALID,98.8406,VALID,-0.0339617,VALID,19.785,VALID,352,VALID,0,
2006-02-13, 01:36:01,VALID,917.782,VALID,0,VALID,98.6066,VALID,0,VALID,19.7047,VALID,352,VALID,0,
2006-02-13, 01:37:00,VALID,917.774,VALID,0,VALID,98.4654,VALID,-0.0169808,VALID,19.6214,VALID,1,VALID,0.284702,
2006-02-13, 01:38:01,VALID,917.774,VALID,0,VALID,98.6702,VALID,-0.0169808,VALID,19.5396,VALID,17,VALID,0.522485,
2006-02-13, 01:39:01,VALID,917.752,VALID,0,VALID,99.3861,VALID,-0.0509425,VALID,19.5724,VALID,21,VALID,0.561133,
2006-02-13, 01:40:01,VALID,917.734,VALID,0,VALID,99.4115,VALID,-0.0509425,VALID,19.5304,VALID,24,VALID,0.663368,
2006-02-13, 01:41:01,VALID,917.722,VALID,0,VALID,99.7815,VALID,-0.0339617,VALID,19.5138,VALID,26,VALID,0.807958,
2006-02-13, 01:42:01,VALID,917.693,VALID,0,VALID,99.9878,VALID,-0.0509425,VALID,19.5177,VALID,27,VALID,0.880394,
2006-02-13, 01:43:01,VALID,917.667,VALID,0,VALID,100,VALID,-0.0509425,VALID,19.4859,VALID,27,VALID,0.738387,
2006-02-13, 01:44:01,VALID,917.635,VALID,0,VALID,100,VALID,-0.0509425,VALID,19.4663,VALID,27,VALID,0.475229,
2006-02-13, 01:45:01,VALID,917.62,VALID,0,VALID,100,VALID,-0.0339617,VALID,19.4432,VALID,27,VALID,0.530869,
2006-02-13, 01:46:01,VALID,917.593,VALID,0,VALID,100,VALID,-0.0169808,VALID,19.4792,VALID,27,VALID,0.467014,
2006-02-13, 01:47:01,VALID,917.57,VALID,0,VALID,100,VALID,-0.0169808,VALID,19.5048,VALID,27,VALID,0.240513,
2006-02-13, 01:48:01,VALID,917.558,VALID,0,VALID,100,VALID,-0.0509425,VALID,19.4949,VALID,27,VALID,0.251674,
2006-02-13, 01:49:01,VALID,917.53,VALID,0,VALID,100,VALID,-0.0509425,VALID,19.4852,VALID,27,VALID,0.211965,
2006-02-13, 01:50:01,VALID,917.518,VALID,0,VALID,100,VALID,-0.0509425,VALID,19.4857,VALID,27,VALID,0.381479,
2006-02-13, 01:51:01,VALID,917.502,VALID,0,VALID,100,VALID,-0.0169808,VALID,19.4628,VALID,27,VALID,0.388368,
2006-02-13, 01:52:01,VALID,917.487,VALID,0,VALID,100,VALID,0.0679233,VALID,19.4777,VALID,27,VALID,0.354469,
2006-02-13, 01:53:01,VALID,917.468,VALID,0,VALID,100,VALID,0.0679233,VALID,19.4974,VALID,27,VALID,0.403832,
2006-02-13, 01:54:01,VALID,917.45,VALID,0,VALID,100,VALID,0.0679233,VALID,19.4999,VALID,27,VALID,0.333984,
2006-02-13, 01:55:01,VALID,917.433,VALID,0,VALID,100,VALID,0.0509425,VALID,19.4934,VALID,27,VALID,0.335547,
2006-02-13, 01:56:01,VALID,917.42,VALID,0,VALID,100,VALID,0.101885,VALID,19.5135,VALID,27,VALID,0.24535,
2006-02-13, 01:57:01,VALID,917.409,VALID,0,VALID,100,VALID,0.0509425,VALID,19.5302,VALID,27,VALID,0.130952,
2006-02-13, 01:58:01,VALID,917.411,VALID,0,VALID,100,VALID,0.0849042,VALID,19.5202,VALID,27,VALID,0.0331555,
2006-02-13, 01:59:01,VALID,917.396,VALID,0,VALID,100,VALID,-0.0169808,VALID,19.5113,VALID,27,VALID,0.25,
2006-02-13, 02:00:01,VALID,917.393,VALID,0,VALID,100,VALID,-0.0339617,VALID,19.4891,VALID,27,VALID,0.188058,
2006-02-13, 02:01:01,VALID,917.372,VALID,0,VALID,100,VALID,-0.0339617,VALID,19.47,VALID,27,VALID,0.242001,
2006-02-13, 02:02:01,VALID,917.35,VALID,0,VALID,100,VALID,-0.0339617,VALID,19.4504,VALID,27,VALID,0.126143,
2006-02-13, 02:03:01,VALID,917.321,VALID,0,VALID,99.9977,VALID,-0.0509425,VALID,19.4148,VALID,27,VALID,0.134629,
2006-02-13, 02:04:01,VALID,917.285,VALID,0,VALID,99.91,VALID,0,VALID,19.3825,VALID,27,VALID,0.256479,
2006-02-13, 02:05:01,VALID,917.271,VALID,0,VALID,99.7892,VALID,-0.0509425,VALID,19.34,VALID,46,VALID,0.479911,
2006-02-13, 02:06:01,VALID,917.275,VALID,0,VALID,99.8655,VALID,-0.0339617,VALID,19.3114,VALID,80,VALID,0.603609,
2006-02-13, 02:07:00,VALID,917.254,VALID,0,VALID,99.9438,VALID,0.0339617,VALID,19.301,VALID,108,VALID,0.692522,
2006-02-13, 02:08:00,VALID,917.253,VALID,0,VALID,100,VALID,0.0509425,VALID,19.3003,VALID,114,VALID,0.546113,
2006-02-13, 02:09:00,VALID,917.247,VALID,0,VALID,100,VALID,0.0849042,VALID,19.3261,VALID,135,VALID,0.482469,
2006-02-13, 02:10:00,VALID,917.245,VALID,0,VALID,100,VALID,0.0509425,VALID,19.3326,VALID,141,VALID,0.495486,
2006-02-13, 02:11:00,VALID,917.237,VALID,0,VALID,100,VALID,0.0679233,VALID,19.3423,VALID,154,VALID,0.572409,
2006-02-13, 02:12:00,VALID,917.241,VALID,0,VALID,100,VALID,0.0509425,VALID,19.3487,VALID,158,VALID,0.814918,
2006-02-13, 02:13:00,VALID,917.224,VALID,0,VALID,100,VALID,0.0679233,VALID,19.3716,VALID,158,VALID,0.79707,
2006-02-13, 02:14:00,VALID,917.217,VALID,0,VALID,100,VALID,0.0169808,VALID,19.3748,VALID,158,VALID,0.263542,
2006-02-13, 02:15:00,VALID,917.212,VALID,0,VALID,100,VALID,0.0849042,VALID,19.3716,VALID,158,VALID,0.00568182,
2006-02-13, 02:16:00,VALID,917.224,VALID,0,VALID,100,VALID,0.0679233,VALID,19.3298,VALID,158,VALID,0,
2006-02-13, 02:17:00,VALID,917.231,VALID,0,VALID,100,VALID,0.0509425,VALID,19.2806,VALID,158,VALID,0.0638021,
2006-02-13, 02:18:00,VALID,917.234,VALID,0,VALID,100,VALID,0.0509425,VALID,19.2553,VALID,158,VALID,0.326823,
2006-02-13, 02:19:00,VALID,917.239,VALID,0,VALID,100,VALID,0.0339617,VALID,19.2391,VALID,154,VALID,0.449505,
2006-02-13, 02:20:00,VALID,917.243,VALID,0,VALID,100,VALID,0.0849042,VALID,19.223,VALID,142,VALID,0.528706,
2006-02-13, 02:21:00,VALID,917.227,VALID,0,VALID,100,VALID,0.101885,VALID,19.2259,VALID,114,VALID,0.820494,
2006-02-13, 02:22:00,VALID,917.218,VALID,0,VALID,100,VALID,0.0339617,VALID,19.2483,VALID,102,VALID,0.985263,
2006-02-13, 02:23:00,VALID,917.212,VALID,0,VALID,100,VALID,0.0679233,VALID,19.2749,VALID,105,VALID,0.974927,
2006-02-13, 02:24:00,VALID,917.188,VALID,0,VALID,100,VALID,0.0849042,VALID,19.2809,VALID,100,VALID,1.21946,
2006-02-13, 02:25:00,VALID,917.156,VALID,0,VALID,100,VALID,0.0339617,VALID,19.2779,VALID,91,VALID,0.868278,
2006-02-13, 02:26:00,VALID,917.124,VALID,0,VALID,100,VALID,0.101885,VALID,19.2682,VALID,96,VALID,0.884146,
2006-02-13, 02:27:00,VALID,917.111,VALID,0,VALID,100,VALID,0.101885,VALID,19.2814,VALID,92,VALID,0.812128,
2006-02-13, 02:28:00,VALID,917.093,VALID,0,VALID,100,VALID,0.0509425,VALID,19.2843,VALID,102,VALID,0.529018,
2006-02-13, 02:29:00,VALID,917.079,VALID,0,VALID,100,VALID,0.0849042,VALID,19.3005,VALID,102,VALID,0.603841,
2006-02-13, 02:30:00,VALID,917.074,VALID,0,VALID,100,VALID,0.0849042,VALID,19.3159,VALID,102,VALID,0.68564,
2006-02-13, 02:31:00,VALID,917.065,VALID,0,VALID,100,VALID,0.0679233,VALID,19.3291,VALID,102,VALID,0.585392,
2006-02-13, 02:32:00,VALID,917.072,VALID,0,VALID,100,VALID,0.0849042,VALID,19.3224,VALID,102,VALID,0.540968,
2006-02-13, 02:33:00,VALID,917.052,VALID,0,VALID,100,VALID,0.101885,VALID,19.3164,VALID,102,VALID,0.309126,
2006-02-13, 02:34:00,VALID,917.065,VALID,0,VALID,100,VALID,0.0679233,VALID,19.3072,VALID,102,VALID,0.536337,
2006-02-13, 02:35:00,VALID,917.062,VALID,0,VALID,100,VALID,0.0679233,VALID,19.31,VALID,102,VALID,0.131882,
2006-02-13, 02:36:00,VALID,917.069,VALID,0,VALID,100,VALID,0.0509425,VALID,19.3234,VALID,102,VALID,0.023247,
2006-02-13, 02:37:00,VALID,917.084,VALID,0,VALID,100,VALID,0.0339617,VALID,19.336,VALID,102,VALID,0,
2006-02-13, 02:38:00,VALID,917.099,VALID,0,VALID,100,VALID,0.0679233,VALID,19.3423,VALID,102,VALID,0.0706597,
2006-02-13, 02:39:00,VALID,917.127,VALID,0,VALID,100,VALID,0.0679233,VALID,19.3291,VALID,102,VALID,0.130149,
2006-02-13, 02:40:00,VALID,917.147,VALID,0,VALID,100,VALID,0.0509425,VALID,19.3487,VALID,102,VALID,0.219308,
2006-02-13, 02:41:00,VALID,917.163,VALID,0,VALID,100,VALID,0.0679233,VALID,19.3584,VALID,102,VALID,0.239826,
2006-02-13, 02:42:00,VALID,917.159,VALID,0,VALID,100,VALID,0.0679233,VALID,19.3785,VALID,102,VALID,0.355114,
2006-02-13, 02:43:00,VALID,917.154,VALID,0,VALID,100,VALID,0.0679233,VALID,19.3781,VALID,102,VALID,0.497049,
2006-02-13, 02:44:00,VALID,917.134,VALID,0,VALID,100,VALID,0.118866,VALID,19.391,VALID,102,VALID,0.434304,
2006-02-13, 02:45:00,VALID,917.117,VALID,0,VALID,100,VALID,0.0169808,VALID,19.3646,VALID,102,VALID,0.513757,
2006-02-13, 02:46:00,VALID,917.108,VALID,0,VALID,100,VALID,0.0679233,VALID,19.3617,VALID,102,VALID,0.64375,
2006-02-13, 02:47:00,VALID,917.119,VALID,0,VALID,100,VALID,0.0509425,VALID,19.3549,VALID,106,VALID,0.652058,
2006-02-13, 02:48:00,VALID,917.124,VALID,0,VALID,100,VALID,0.0509425,VALID,19.3395,VALID,140,VALID,0.453307,
2006-02-13, 02:49:00,VALID,917.135,VALID,0,VALID,100,VALID,0.101885,VALID,19.3261,VALID,144,VALID,0.331759,
2006-02-13, 02:50:00,VALID,917.148,VALID,0,VALID,100,VALID,0.0509425,VALID,19.3003,VALID,144,VALID,0.28218,
2006-02-13, 02:51:00,VALID,917.165,VALID,0,VALID,100,VALID,0.0679233,VALID,19.294,VALID,144,VALID,0.264323,
2006-02-13, 02:52:00,VALID,917.18,VALID,0,VALID,100,VALID,0.0169808,VALID,19.2957,VALID,144,VALID,0.129764,
2006-02-13, 02:53:00,VALID,917.194,VALID,0,VALID,100,VALID,0,VALID,19.2893,VALID,144,VALID,0.166548,
2006-02-13, 02:54:00,VALID,917.214,VALID,0,VALID,100,VALID,-0.0169808,VALID,19.2731,VALID,144,VALID,0.36684,
2006-02-13, 02:55:00,VALID,917.22,VALID,0,VALID,100,VALID,-0.0509425,VALID,19.2438,VALID,144,VALID,0.24673,
2006-02-13, 02:56:00,VALID,917.226,VALID,0,VALID,100,VALID,-0.0679233,VALID,19.2182,VALID,144,VALID,0.44494,
2006-02-13, 02:57:00,VALID,917.231,VALID,0,VALID,100,VALID,-0.0339617,VALID,19.2217,VALID,144,VALID,0.364462,
2006-02-13, 02:58:00,VALID,917.225,VALID,0,VALID,100,VALID,-0.0339617,VALID,19.1856,VALID,144,VALID,0.254439,
2006-02-13, 02:59:00,VALID,917.208,VALID,0,VALID,100,VALID,-0.0509425,VALID,19.1595,VALID,144,VALID,0.0876116,
2006-02-13, 03:00:00,VALID,917.192,VALID,0,VALID,100,VALID,-0.0509425,VALID,19.1662,VALID,144,VALID,0,
2006-02-13, 03:01:00,VALID,917.169,VALID,0,VALID,100,VALID,0,VALID,19.1695,VALID,144,VALID,0,
2006-02-13, 03:02:00,VALID,917.155,VALID,0,VALID,100,VALID,-0.0509425,VALID,19.1826,VALID,144,VALID,0,
2006-02-13, 03:03:00,VALID,917.13,VALID,0,VALID,100,VALID,0.0169808,VALID,19.1697,VALID,149,VALID,0.158249,
2006-02-13, 03:04:00,VALID,917.118,VALID,0,VALID,100,VALID,-0.0169808,VALID,19.1658,VALID,217,VALID,0.494004,
2006-02-13, 03:05:00,VALID,917.125,VALID,0,VALID,100,VALID,-0.0679233,VALID,19.2048,VALID,277,VALID,0.445122,
2006-02-13, 03:06:00,VALID,917.112,VALID,0,VALID,100,VALID,-0.0169808,VALID,19.25,VALID,277,VALID,0.180778,
2006-02-13, 03:07:00,VALID,917.108,VALID,0,VALID,100,VALID,0.0509425,VALID,19.2682,VALID,277,VALID,0.0158155,
2006-02-13, 03:08:00,VALID,917.092,VALID,0,VALID,100,VALID,0.0849042,VALID,19.2456,VALID,277,VALID,0,
2006-02-13, 03:09:00,VALID,917.077,VALID,0,VALID,100,VALID,0.0849042,VALID,19.1553,VALID,277,VALID,0,
2006-02-13, 03:10:00,VALID,917.075,VALID,0,VALID,100,VALID,0.0509425,VALID,19.0621,VALID,277,VALID,0.0482088,
2006-02-13, 03:11:00,VALID,917.055,VALID,0,VALID,100,VALID,0.101885,VALID,19.0067,VALID,325,VALID,0.492188,
2006-02-13, 03:12:00,VALID,917.062,VALID,0,VALID,100,VALID,0.101885,VALID,18.9935,VALID,37,VALID,0.869606,
2006-02-13, 03:13:00,VALID,917.053,VALID,0,VALID,100,VALID,0.0679233,VALID,18.9583,VALID,43,VALID,1.33327,
2006-02-13, 03:14:00,VALID,917.057,VALID,0,VALID,100,VALID,0.0679233,VALID,18.9038,VALID,43,VALID,1.17188,
2006-02-13, 03:15:00,VALID,917.045,VALID,0,VALID,100,VALID,0.0169808,VALID,18.8646,VALID,44,VALID,0.993521,
2006-02-13, 03:16:00,VALID,917.044,VALID,0,VALID,100,VALID,0.0679233,VALID,18.8999,VALID,44,VALID,0.973214,
2006-02-13, 03:17:00,VALID,917.048,VALID,0,VALID,100,VALID,0.0339617,VALID,18.9841,VALID,44,VALID,0.924006,
2006-02-13, 03:18:00,VALID,917.049,VALID,0,VALID,100,VALID,0.0339617,VALID,19.0132,VALID,45,VALID,0.990552,
2006-02-13, 03:19:00,VALID,917.057,VALID,0,VALID,100,VALID,0.0849042,VALID,19.0162,VALID,45,VALID,1.12028,
2006-02-13, 03:20:00,VALID,917.049,VALID,0,VALID,100,VALID,0.0509425,VALID,19.0517,VALID,45,VALID,1.0745,
2006-02-13, 03:21:00,VALID,917.051,VALID,0,VALID,100,VALID,0.0849042,VALID,19.0485,VALID,45,VALID,1.21039,
2006-02-13, 03:22:00,VALID,917.036,VALID,0,VALID,100,VALID,0,VALID,19.043,VALID,45,VALID,1.36871,
2006-02-13, 03:23:00,VALID,917.041,VALID,0,VALID,100,VALID,-0.0509425,VALID,19.0345,VALID,44,VALID,1.38164,
2006-02-13, 03:24:00,VALID,917.023,VALID,0,VALID,100,VALID,-0.0679233,VALID,19.0243,VALID,45,VALID,1.101,
2006-02-13, 03:25:00,VALID,917.015,VALID,0,VALID,100,VALID,-0.118866,VALID,19.0382,VALID,55,VALID,1.17151,
2006-02-13, 03:26:00,VALID,916.981,VALID,0,VALID,100,VALID,-0.0509425,VALID,19.0598,VALID,53,VALID,1.16445,
2006-02-13, 03:27:00,VALID,916.97,VALID,0,VALID,100,VALID,-0.0679233,VALID,19.0926,VALID,52,VALID,0.997024,
2006-02-13, 03:28:00,VALID,916.951,VALID,0,VALID,100,VALID,-0.0509425,VALID,19.1056,VALID,51,VALID,0.925876,
2006-02-13, 03:29:00,VALID,916.94,VALID,0,VALID,100,VALID,-0.0679233,VALID,19.1125,VALID,60,VALID,0.761111,
2006-02-13, 03:30:00,VALID,916.935,VALID,0,VALID,100,VALID,-0.0509425,VALID,19.0889,VALID,67,VALID,0.472842,
2006-02-13, 03:31:00,VALID,916.915,VALID,0,VALID,100,VALID,-0.0679233,VALID,19.0922,VALID,80,VALID,0.564024,
2006-02-13, 03:32:00,VALID,916.912,VALID,0,VALID,100,VALID,-0.0679233,VALID,19.0855,VALID,96,VALID,0.625,
2006-02-13, 03:33:00,VALID,916.905,VALID,0,VALID,100,VALID,-0.0679233,VALID,19.109,VALID,101,VALID,0.530895,
2006-02-13, 03:34:00,VALID,916.895,VALID,0,VALID,100,VALID,-0.0509425,VALID,19.0986,VALID,101,VALID,0.558036,
2006-02-13, 03:35:00,VALID,916.901,VALID,0,VALID,100,VALID,-0.0509425,VALID,19.0924,VALID,101,VALID,0.614139,
2006-02-13, 03:36:00,VALID,916.888,VALID,0,VALID,100,VALID,-0.0679233,VALID,19.0899,VALID,107,VALID,0.713942,
2006-02-13, 03:37:00,VALID,916.876,VALID,0,VALID,100,VALID,0,VALID,19.0688,VALID,110,VALID,0.686228,
2006-02-13, 03:38:00,VALID,916.865,VALID,0,VALID,100,VALID,0.0509425,VALID,19.0552,VALID,118,VALID,0.832741,
2006-02-13, 03:39:00,VALID,916.868,VALID,0,VALID,100,VALID,0.0169808,VALID,19.0457,VALID,125,VALID,1.00801,
2006-02-13, 03:40:00,VALID,916.867,VALID,0,VALID,100,VALID,0.0339617,VALID,19.0721,VALID,138,VALID,0.952035,